Location: Central Falls
(41.8900°N, 71.3929°W)
Time: 11:54:34
(UTC+00:00)

A-11 Canister half - Pass Details

Date: 13 December 2023
Orbit: 1512 x 1687 km, 47.2° (Epoch: 20 February)

Event Time Altitude Azimuth Distance (km) Brightness Sun altitude
Rises 00:39:45 0° 192° (SSW) 4,645 11.6 -37.3°
Reaches altitude 10° 00:43:25 10° 180° (S) 3,679 10.9 -37.9°
Enters shadow 00:44:14 12° 176° (S) 3,488 10.8 -38.1°
Maximum altitude 00:50:34 26° 129° (SE) 2,695 - -39.3°
Drops below altitude 10° 00:57:52 10° 78° (ENE) 3,777 - -40.6°
Sets 01:01:39 0° 66° (ENE) 4,794 - -41.3°
